Regional Weather Roundup
Issued by NWS

Home | Current Version | Previous Version | Text Only | Print | Product List | Glossary Off
Versions: 1 2 3 4 5 6 7 8 9 10 11 12 13 14 15 16 17 18 19 20 21 22 23 24 25 26 27 28 29 30 31 32 33 34 35 36 37 38 39 40 41 42 43 44 45 46 47 48 49 50

000
ASUS43 KDMX 260703
RWRIA

WEATHER ROUNDUP FOR IOWA
NATIONAL WEATHER SERVICE DES MOINES IA
200 AM CDT TUE JUL 26 2016

NOTE: "FAIR" INDICATES FEW OR NO CLOUDS BELOW 12,000 FEET WITH NO
SIGNIFICANT WEATHER AND/OR OBSTRUCTIONS TO VISIBILITY.

* - THESE STATIONS ARE NOT NWS STATIONS...THUS NOT UNDER NWS
QUALITY CONTROL.  THEY ALSO DO NOT REPORT WEATHER SUCH
AS PRECIPITATION OR FOG.

IAZ001>003-012>014-020>022-031>034-043>046-260800-
   NORTHWEST IOWA

CITY           SKY/WX    TMP DP  RH WIND       PRES   REMARKS
CARROLL *      CLEAR     64  64 100 CALM      30.10S
CHEROKEE *     CLEAR     66  65  99 CALM      30.10S
DENISON *      CLEAR     63  63 100 CALM      30.09S
LE MARS *      CLEAR     66  64  94 CALM      30.11R
SHELDON *      CLEAR     64  64 100 CALM      30.09S
SIOUX CITY     CLEAR     69  64  84 E3        30.09F
SPENCER        CLEAR     67  63  87 S3        30.10S
STORM LAKE *   CLEAR     66  63  88 SW6       30.12R
$$

IAZ055>058-069>071-079>083-090>094-260800-
   SOUTHWEST IOWA

CITY           SKY/WX    TMP DP  RH WIND       PRES   REMARKS
ATLANTIC *     CLEAR     63  63 100 N5        30.10S
CLARINDA *       N/A     66  64  94 MISG      30.11S
COUNCIL BLFS *   N/A     70  66  88 CALM      30.10S
CRESTON *      CLEAR     66  63  88 N3        30.11S
HARLAN  *      CLEAR     63  63 100 CALM      30.14S
LAMONI         CLEAR     67  64  90 N3        30.08S
RED OAK *      CLEAR     66  64  94 CALM      30.09S
SHENANDOAH *   CLEAR     66  66 100 NE5       30.09S
$$

IAZ047>049-059>061-072>074-084-260800-
   CENTRAL IOWA

CITY           SKY/WX    TMP DP  RH WIND       PRES   REMARKS
AMES           CLEAR     63  63 100 CALM      30.08S
ANKENY *         N/A    N/A N/A N/A MISG        N/A
BOONE *        CLEAR     66  64  94 CALM      30.08F
CHARITON *       N/A    N/A N/A N/A MISG        N/A
DES MOINES     CLEAR     73  67  81 CALM      30.07S
GRINNELL*      CLEAR     65  62  93 CALM      30.09S
KNOXVILLE *    CLEAR     66  63  88 NW5       30.07S
MARSHALLTOWN   CLEAR     64  64 100 NW3       30.08S
NEWTON *       CLEAR     70  66  88 N3        30.08R
PELLA *        CLEAR     67  62  86 CALM      30.08S
PERRY *          N/A     65  65  98 CALM      30.09S
$$

IAZ004>006-015-016-023>025-035-036-260800-
   NORTH CENTRAL IOWA

CITY           SKY/WX    TMP DP  RH WIND       PRES   REMARKS
ALGONA *       CLEAR     68  66  94 SW6       30.10S
ESTHERVILLE    CLEAR     66  64  93 SW6       30.09F
FORT DODGE *     N/A     66  64  94 CALM      30.10S VSB 1/2
MASON CITY     CLEAR     63  62  97 CALM      30.10F
FOREST CITY *  FOG       63  63 100 CALM      30.09S VSB 1
IOWA FALLS *     N/A     64  62  91 CALM      30.10S
$$

IAZ007>011-017>019-026>030-037>042-050>054-066-260800-
   NORTHEAST IOWA

CITY           SKY/WX    TMP DP  RH WIND       PRES   REMARKS
CEDAR RAPIDS   PTCLDY    66  65  96 NW3       30.06S
CHARLES CITY * CLEAR     64  64 100 CALM      30.09S
CLINTON *      CLEAR     66  65  96 N6        30.05F
DECORAH *      CLEAR     66  66 100 CALM      30.08R
DUBUQUE        CLEAR     69  62  78 CALM      30.07S
MONTICELLO *   CLEAR     64  64 100 CALM      30.06S
OELWEIN *      CLEAR     66  63  88 N5        30.09R
WATERLOO       CLEAR     66  63  90 CALM      30.07R
$$

IAZ064-065-067-068-078-260800-
   EAST CENTRAL IOWA

CITY           SKY/WX    TMP DP  RH WIND       PRES   REMARKS
DAVENPORT      CLEAR     64  62  93 CALM      30.05F
IOWA CITY      PTCLDY    67  64  90 W3        30.07S
MT. PLEASANT *   N/A     69  69 100 CALM      30.06S
MUSCATINE *    CLEAR     66  64  94 CALM      30.05S
QUAD CITIES    CLOUDY    68  64  87 CALM      30.04S
$$

IAZ062-063-075>077-085>089-095>099-260800-
   SOUTHEAST IOWA

CITY           SKY/WX    TMP DP  RH WIND       PRES   REMARKS
BURLINGTON     CLEAR     67  67 100 N5        30.04F
FAIRFIELD *    CLEAR     66  63  88 NW6       30.06S
KEOKUK *       CLEAR     68  68 100 CALM      30.04S
CENTERVILLE *    N/A     64  63  94 CALM      30.09S
OTTUMWA        CLEAR     66  64  93 NW5       30.06F
WASHINGTON *   CLEAR     66  64  94 NW5       30.07S
$$

ABBREVIATIONS USED IN REMARKS
   TC - TEMPERATURES IN CELSIUS
  WCI - WIND CHILL INDEX
   HX - HEAT INDEX
  VSB - VISIBILITY
$$




USA.gov is the U.S. government's official web portal to all federal, state and local government web resources and services.